When you browse on this site, cookies collect data to enhance your experience and personalize the content and advertising you see.
Visit our Privacy Policy to learn more. By continuing to use the site, you agree to this use of cookies and data.

Hourly Weather Carlisle

Today, 27 September, Sunday

Time Temperature Precipitation Wind Pressure Humidity
00:00 +4°C° 0 mm 2 mps 761 mmHg 92%
01:00 +4°C° 0 mm 2 mps 761 mmHg 92%
02:00 +3°C° 0 mm 2 mps 761 mmHg 92%
03:00 +3°C° 0 mm 2 mps 761 mmHg 93%
04:00 +3°C° 0 mm 2 mps 761 mmHg 92%
05:00 +3°C° 0 mm 2 mps 761 mmHg 92%
06:00 +2°C° 0 mm 2 mps 761 mmHg 92%
07:00 +4°C° 0 mm 2 mps 761 mmHg 87%
08:00 +7°C° 0 mm 1 mps 761 mmHg 82%
09:00 +8°C° 0 mm 1 mps 760 mmHg 78%
10:00 +9°C° 0 mm 1 mps 760 mmHg 74%
11:00 +10°C° 0 mm 2 mps 760 mmHg 70%
12:00 +12°C° 0 mm 2 mps 760 mmHg 66%
13:00 +12°C° 0 mm 1 mps 760 mmHg 65%
14:00 +13°C° 0 mm 1 mps 760 mmHg 65%
15:00 +13°C° 0 mm 1 mps 759 mmHg 64%
16:00 +11°C° 0 mm 1 mps 759 mmHg 70%
17:00 +10°C° 0 mm 1 mps 759 mmHg 77%
18:00 +8°C° 0 mm 1 mps 759 mmHg 84%
19:00 +7°C° 0 mm 0 mps 759 mmHg 84%
20:00 +6°C° 0 mm 0 mps 759 mmHg 84%
21:00 +6°C° 0 mm 0 mps 759 mmHg 84%
22:00 +5°C° 0 mm 0 mps 759 mmHg 84%
23:00 +6°C° 0 mm 1 mps 759 mmHg 85%

Tomorrow, 28 September, Monday

Time Temperature Precipitation Wind Pressure Humidity
00:00 +6°C° 0 mm 1 mps 758 mmHg 85%
01:00 +6°C° 0 mm 1 mps 758 mmHg 85%
02:00 +6°C° 0 mm 1 mps 758 mmHg 85%
03:00 +6°C° 0 mm 1 mps 757 mmHg 85%
04:00 +6°C° 0 mm 1 mps 757 mmHg 85%
05:00 +6°C° 0 mm 1 mps 757 mmHg 84%
06:00 +5°C° 0 mm 2 mps 756 mmHg 84%
07:00 +7°C° 0 mm 2 mps 756 mmHg 81%
08:00 +8°C° 0 mm 2 mps 756 mmHg 79%
09:00 +10°C° 0 mm 2 mps 756 mmHg 76%
10:00 +12°C° 0 mm 2 mps 756 mmHg 77%
11:00 +12°C° 0 mm 3 mps 756 mmHg 78%
12:00 +14°C° 0 mm 3 mps 756 mmHg 79%
13:00 +13°C° 0.1 mm 3 mps 756 mmHg 83%
14:00 +12°C° 0.1 mm 3 mps 756 mmHg 87%
15:00 +12°C° 0.1 mm 3 mps 756 mmHg 91%
16:00 +12°C° 0 mm 2 mps 756 mmHg 92%
17:00 +12°C° 0 mm 2 mps 756 mmHg 94%
18:00 +12°C° 0 mm 2 mps 756 mmHg 95%
19:00 +12°C° 0 mm 2 mps 757 mmHg 95%
20:00 +11°C° 0 mm 1 mps 757 mmHg 95%
21:00 +11°C° 0 mm 1 mps 758 mmHg 94%
22:00 +10°C° 0 mm 1 mps 758 mmHg 94%
23:00 +9°C° 0 mm 1 mps 758 mmHg 94%

Day after tomorrow, 29 September, Tuesday

Time Temperature Precipitation Wind Pressure Humidity
00:00 +8°C° 0 mm 1 mps 758 mmHg 94%
01:00 +8°C° 0 mm 1 mps 758 mmHg 94%
02:00 +7°C° 0 mm 1 mps 758 mmHg 94%
03:00 +7°C° 0 mm 1 mps 758 mmHg 94%
04:00 +7°C° 0 mm 1 mps 759 mmHg 94%
05:00 +7°C° 0 mm 1 mps 759 mmHg 94%
06:00 +7°C° 0 mm 1 mps 759 mmHg 94%
07:00 +8°C° 0 mm 1 mps 759 mmHg 91%
08:00 +10°C° 0 mm 1 mps 759 mmHg 89%
09:00 +11°C° 0 mm 1 mps 759 mmHg 87%
10:00 +12°C° 0 mm 1 mps 759 mmHg 82%
11:00 +13°C° 0 mm 2 mps 759 mmHg 78%
12:00 +14°C° 0 mm 2 mps 759 mmHg 73%
13:00 +13°C° 0.1 mm 3 mps 759 mmHg 73%
14:00 +13°C° 0.1 mm 3 mps 759 mmHg 73%
15:00 +13°C° 0.1 mm 3 mps 758 mmHg 73%
16:00 +12°C° 0 mm 3 mps 758 mmHg 79%
17:00 +10°C° 0 mm 2 mps 758 mmHg 84%
18:00 +10°C° 0 mm 1 mps 758 mmHg 90%
19:00 +8°C° 0 mm 2 mps 758 mmHg 91%
20:00 +8°C° 0 mm 2 mps 758 mmHg 92%
21:00 +7°C° 0 mm 2 mps 758 mmHg 93%
22:00 +7°C° 0 mm 2 mps 757 mmHg 93%
23:00 +7°C° 0 mm 2 mps 757 mmHg 94%

30 September, Wednesday

Time Temperature Precipitation Wind Pressure Humidity
00:00 +7°C° 0 mm 3 mps 756 mmHg 94%
01:00 +7°C° 0 mm 3 mps 756 mmHg 94%
02:00 +8°C° 0 mm 3 mps 755 mmHg 94%
03:00 +8°C° 0 mm 3 mps 754 mmHg 94%
04:00 +8°C° 0 mm 3 mps 754 mmHg 93%
05:00 +8°C° 0 mm 4 mps 753 mmHg 92%
06:00 +8°C° 0 mm 4 mps 753 mmHg 91%
07:00 +10°C° 0.1 mm 4 mps 752 mmHg 91%
08:00 +10°C° 0.1 mm 4 mps 751 mmHg 90%
09:00 +10°C° 0.1 mm 4 mps 751 mmHg 90%
10:00 +11°C° 0.5 mm 4 mps 750 mmHg 91%
11:00 +11°C° 0.5 mm 4 mps 750 mmHg 91%
12:00 +10°C° 0.5 mm 5 mps 750 mmHg 92%
13:00 +11°C° 0.1 mm 4 mps 749 mmHg 91%
14:00 +12°C° 0.1 mm 4 mps 749 mmHg 90%
15:00 +13°C° 0.1 mm 4 mps 749 mmHg 88%
16:00 +12°C° 0.5 mm 3 mps 748 mmHg 91%
17:00 +12°C° 0.5 mm 2 mps 748 mmHg 93%
18:00 +12°C° 0.5 mm 1 mps 748 mmHg 96%
19:00 +12°C° 0.9 mm 1 mps 747 mmHg 96%
20:00 +11°C° 0.9 mm 1 mps 747 mmHg 96%
21:00 +11°C° 0.9 mm 1 mps 747 mmHg 97%
22:00 +11°C° 0.3 mm 1 mps 747 mmHg 97%
23:00 +11°C° 0.3 mm 1 mps 747 mmHg 96%

1 October, Thursday

Time Temperature Precipitation Wind Pressure Humidity
00:00 +10°C° 0.3 mm 1 mps 746 mmHg 96%
01:00 +10°C° 0.2 mm 1 mps 746 mmHg 95%
02:00 +8°C° 0.2 mm 2 mps 746 mmHg 95%
03:00 +8°C° 0.2 mm 2 mps 746 mmHg 94%
04:00 +7°C° 0 mm 2 mps 746 mmHg 93%
05:00 +6°C° 0 mm 2 mps 746 mmHg 93%
06:00 +6°C° 0 mm 1 mps 746 mmHg 92%
07:00 +8°C° 0 mm 1 mps 746 mmHg 88%
08:00 +9°C° 0 mm 1 mps 746 mmHg 84%
09:00 +10°C° 0 mm 1 mps 746 mmHg 80%
10:00 +9°C° 0 mm 2 mps 745 mmHg 76%
11:00 +10°C° 0 mm 2 mps 745 mmHg 73%
12:00 +12°C° 0 mm 2 mps 745 mmHg 69%
13:00 +11°C° 0 mm 3 mps 744 mmHg 71%
14:00 +11°C° 0 mm 3 mps 743 mmHg 73%
15:00 +10°C° 0 mm 4 mps 743 mmHg 74%
16:00 +10°C° 0.1 mm 3 mps 742 mmHg 77%
17:00 +9°C° 0.1 mm 3 mps 741 mmHg 80%
18:00 +8°C° 0.1 mm 3 mps 740 mmHg 83%
19:00 +7°C° 0.2 mm 4 mps 739 mmHg 84%
20:00 +7°C° 0.2 mm 4 mps 737 mmHg 85%
21:00 +7°C° 0.2 mm 5 mps 736 mmHg 86%
22:00 +8°C° 1.1 mm 5 mps 735 mmHg 88%
23:00 +8°C° 1.1 mm 5 mps 734 mmHg 91%

2 October, Friday

Time Temperature Precipitation Wind Pressure Humidity
00:00 +8°C° 1.1 mm 5 mps 733 mmHg 93%
01:00 +8°C° 0.7 mm 5 mps 733 mmHg 93%
02:00 +8°C° 0.7 mm 4 mps 733 mmHg 93%
03:00 +9°C° 0.7 mm 3 mps 732 mmHg 93%
04:00 +8°C° 0 mm 2 mps 732 mmHg 92%
05:00 +7°C° 0 mm 2 mps 732 mmHg 92%
06:00 +7°C° 0 mm 1 mps 732 mmHg 91%
07:00 +7°C° 0 mm 2 mps 733 mmHg 89%
08:00 +8°C° 0 mm 2 mps 733 mmHg 86%
09:00 +10°C° 0 mm 2 mps 733 mmHg 83%
10:00 +10°C° 0.1 mm 2 mps 733 mmHg 79%
11:00 +12°C° 0.1 mm 2 mps 733 mmHg 74%
12:00 +12°C° 0.1 mm 3 mps 733 mmHg 70%
13:00 +13°C° 0.1 mm 2 mps 733 mmHg 68%
14:00 +13°C° 0.1 mm 1 mps 733 mmHg 67%
15:00 +13°C° 0.1 mm 1 mps 733 mmHg 65%
16:00 +12°C° 0 mm 1 mps 734 mmHg 70%
17:00 +11°C° 0 mm 1 mps 734 mmHg 76%
18:00 +9°C° 0 mm 2 mps 734 mmHg 81%
19:00 +8°C° 0.1 mm 2 mps 734 mmHg 84%
20:00 +9°C° 0.1 mm 1 mps 734 mmHg 88%
21:00 +9°C° 0.1 mm 1 mps 734 mmHg 91%
22:00 +9°C° 0.1 mm 1 mps 734 mmHg 91%
23:00 +9°C° 0.1 mm 1 mps 734 mmHg 91%
Show more